Regional Weather Roundup
Issued by NWS Jackson, KY

Home | Current Version | Previous Version | Graphics & Text | Print | Product List | Glossary On
Versions: 1 2 3 4 5 6 7 8 9 10 11 12 13 14 15 16 17 18 19 20 21 22 23 24 25 26 27 28 29 30 31 32 33 34 35 36 37 38 39 40 41 42 43 44 45 46 47 48
000
ASUS43 KJKL 260610
RWRJKL

EAST KENTUCKY HOURLY WEATHER ROUNDUP
NATIONAL WEATHER SERVICE JACKSON KY
200 AM EDT SUN APR 26 2015

NOTE: "FAIR" INDICATES FEW OR NO CLOUDS BELOW 12,000 FEET WITH
NO SIGNIFICANT WEATHER AND/OR OBSTRUCTIONS TO VISIBILITY.

* THESE REPORTS ARE NOT UNDER NWS QUALITY CONTROL AND MAY NOT
  REPORT WEATHER SUCH AS PRECIPITATION AND FOG.

KYZ079-080-083-085-087-088-110-112-115-119-120-260700
...EASTERN KENTUCKY...

CITY           SKY/WX    TMP DP  RH WIND       PRES   REMARKS
JACKSON        CLOUDY    48  47  96 VRB3      29.59R FOG
6HR MIN TEMP:  48; 6HR MAX TEMP:  52; 6HR PCP:  0.23;

LONDON         CLOUDY    55  51  86 N5        29.58R
6HR MIN TEMP:  54; 6HR MAX TEMP:  77; 6HR PCP:  0.43;

SOMERSET*      CLOUDY    54  54 100 N5        29.61R
MONTICELLO*    MOCLDY    57  57 100 NW8       29.62R FOG
6HR MIN TEMP:  57; 6HR MAX TEMP:  76; 6HR PCP:  0.47;

MIDDLESBORO*   CLOUDY    58  58  99 CALM      29.57S
6HR MIN TEMP:  57; 6HR MAX TEMP:  70; 6HR PCP:  0.42;

HARLAN APT*    MOCLDY    55  55 100 CALM      29.57S
HAZARD APT*    CLOUDY    52  52 100 CALM      29.59R FOG
BLACK MTN*       N/A     50  50 100 SW1         N/A
BIG SANDY*     CLOUDY    47  47  99 NE5       29.58S
6HR MIN TEMP:  47; 6HR MAX TEMP:  50;

MOREHEAD APT*  CLOUDY    45  43  93 NE7       29.66R
$$

KYZ035-036-041-042-044-050-067-078-099-260700
...CENTRAL KENTUCKY...

CITY           SKY/WX    TMP DP  RH WIND       PRES   REMARKS
MT STERLING*   CLOUDY    45  45 100 NE7       29.65R
FLEMING/MASON* CLOUDY    43  41  93 NE13      29.68R
DANVILLE*      CLOUDY    46  46 100 N10       29.64R FOG
RICHMOND*      CLOUDY    48  46  93 N6        29.61R
LEXINGTON      LGT RAIN  45  43  93 NE13      29.65R
6HR MIN TEMP:  45; 6HR MAX TEMP:  48; 6HR PCP:  0.37;

FRANKFORT      CLOUDY    45  42  89 NE7       29.66R
6HR MIN TEMP:  45; 6HR MAX TEMP:  49; 6HR PCP:  0.17;

$$

KYZ091>093-OHZ055-061-077-WVZ005-015-034-035-042-260700
...SOUTHERN OHIO/WEST VIRGINIA...

CITY           SKY/WX    TMP DP  RH WIND       PRES   REMARKS
COVINGTON      CLOUDY    45  41  86 NE16      29.70R
COLUMBUS       CLOUDY    42  32  67 N12       29.71S
DAYTON         CLOUDY    41  31  67 N15       29.75R
WILMINGTON     CLOUDY    42  38  85 NE12      29.69R
HUNTINGTON     CLOUDY    44  43  96 N7        29.62R
CHARLESTON     LGT RAIN  45  44  97 NE6       29.59F FOG
PINEVILLE*     LGT RAIN  49  49 100 MISG      29.62R
BECKLEY        RAIN      46  44  93 SE6       29.57S FOG
BLUEFIELD      LGT RAIN  47  43  86 CALM      29.60R FOG
$$

VAZ002-007-008-TNZ017-027-036-066-071-260700
...SOUTHWEST VIRGINIA/EAST TENNESSEE...

CITY           SKY/WX    TMP DP  RH WIND       PRES   REMARKS
WISE*          RAIN      54  54 100 CALM      29.59R
JONESVILLE*    CLOUDY    57  57 100 CALM      29.58S
ABINGDON*      RAIN      58  57  97 SW5       29.56R
BRISTOL        CLOUDY    60  56  86 SW9       29.55R
KNOXVILLE      LGT RAIN  61  58  90 SW9       29.59R
OAK RIDGE      MOCLDY    62  59  90 VRB3      29.59R
CROSSVILLE     CLOUDY    60  55  83 W6        29.64S
NASHVILLE      CLOUDY    61  59  93 CALM      29.61F
$$

...KEY TO REMARKS...
VSB - VISIBILITY IN MILES
WCI - WIND CHILL INDEX
HX  - HEAT INDEX

$$


USA.gov is the U.S. government's official web portal to all federal, state and local government web resources and services.